Location: Belmont
(13.0833°N, 59.6000°W)
Time: 10:57:58
(UTC+00:00)

SL-16 R/B - Pass Details

Date: 17 September 2019
Orbit: 842 x 846 km, 71.0° (Epoch: 22 October)

Event Time Altitude Azimuth Distance (km) Brightness Sun altitude
Rises 22:52:36 0° 335° (NNW) 3,396 5.8 -14.0°
Reaches altitude 10° 22:55:07 10° 330° (NNW) 2,461 5.1 -14.7°
Maximum altitude 23:00:33 50° 256° (WSW) 1,064 3.1 -16.0°
Drops below altitude 10° 23:05:59 10° 181° (S) 2,459 4.6 -17.3°
Sets 23:08:30 0° 176° (S) 3,393 5.2 -17.9°
